[Iaude] MPEC G184: 2013 HM11 [a=0.89,e=0.37,i=29.0,H=23.16]
    mpec at cfa.harvard.edu 
    mpec at cfa.harvard.edu
       
    Sat Apr 13 10:13:56 EDT 2024
    
    
  
M.P.E.C. 2024-G184                               Issued 2024 April 13, 14:12 UT
     The Minor Planet Electronic Circulars contain information on unusual
         minor planets, routine data on comets and natural satellites,
         and occasional editorial announcements.  They are published
    on behalf of Division F of the International Astronomical Union by the
          Minor Planet Center, Smithsonian Astrophysical Observatory,
                          Cambridge, MA 02138, U.S.A.
			  
             Prepared using the Tamkin Foundation Computer Network
                              MPC at CFA.HARVARD.EDU
            URL https://www.minorplanetcenter.net/    ISSN 1523-6714
                                   2013 HM11                                    
                           Revision to MPEC 2013-H30                            
Additional Observations:
     K13H11M 1C2024 04 12.41043114 57 17.802+05 52 13.08         20.72GVEG184G96
     K13H11M 1C2024 04 12.41560414 57 15.642+05 52 00.73         20.70GVEG184G96
     K13H11M 1C2024 04 12.42078514 57 13.439+05 51 47.77         21.18GVEG184G96
     K13H11M 1C2024 04 12.42596014 57 11.275+05 51 34.78         20.87GVEG184G96
     K13H11M KC2024 04 12.44782614 57 01.976+05 50 40.88         21.39GVEG184I52
     K13H11M KC2024 04 12.44910214 57 01.458+05 50 37.82         20.95GVEG184I52
     K13H11M KC2024 04 12.45037514 57 00.900+05 50 34.51         21.37GVEG184I52
     K13H11M KC2024 04 13.33490114 50 49.286+05 12 55.73         20.66GVEG184I52
     K13H11M KC2024 04 13.33661314 50 48.469+05 12 50.94         20.90GVEG184I52
     K13H11M KC2024 04 13.33832214 50 47.717+05 12 46.55         20.88GVEG184I52
     K13H11M KC2024 04 13.34002914 50 46.968+05 12 42.23         21.11GVEG184I52
Observer details:
G96 Mt. Lemmon Survey.  Observer H. Groeller.  Measurers T. Beuden, V. F.
    Carvajal, D. Fay, J. B. Fazekas, D. C. Fuls, A. R. Gibbs, A. D. Grauer, H.
    Groeller, J. K. Hogan, R. A. Kowalski, S. M. Larson, G. J. Leonard, D.
    Rankin, R. L. Seaman, F. C. Shelly, K. W. Wierzchos.  1.5-m reflector +
    10K CCD.
I52 Steward Observatory, Mt. Lemmon Station.  Observers V. F. Carvajal, D.
    Rankin.  Measurers T. Beuden, V. F. Carvajal, D. Fay, J. B. Fazekas, D. C.
    Fuls, A. R. Gibbs, A. D. Grauer, H. Groeller, J. K. Hogan, R. A. Kowalski,
    S. M. Larson, G. J. Leonard, D. Rankin, R. L. Seaman, F. C. Shelly, K. W.
    Wierzchos.  1.0-m prime focus + CCD.
First and last observations above in comparison with prediction:
Residuals in seconds of arc (or two decimals in degrees), reference and Delta-T
240412 G96 1.81+ 1.91+    240413 I52 1.87+ 1.95+    MPO265065   +0.67 days
Orbital elements:
2013 HM11                                                Earth MOID = 0.1256 AU
Epoch 2024 Mar. 31.0 TT = JDT 2460400.5                 Veres                   
M 203.20025              (2000.0)            P               Q                  
n   1.16437920     Peri.  333.39977     +0.96577007     -0.03485884             
a   0.8948284      Node    32.01199     +0.21659058     +0.65367051             
e   0.3699088      Incl.   29.00627     -0.14274693     +0.75597601             
P   0.85           H   23.16          G   0.15           U   1                  
Residuals in seconds of arc
130417 F51  0.3+  0.0     130419 711  0.1+  0.0     130421 J95  0.3-  0.5-
130417 F51  0.2-  0.1-    130419 711  0.6-  0.2+    130421 J95  0.7-  1.0-
130417 F51  0.3-  0.0     130419 W85  0.2-  0.2+    130429 291  0.4+  0.0
130418 954  0.3+  0.9-    130419 W85  0.3-  0.2+    130429 291  0.0   0.3-
130418 954  0.9+  2.4+    130419 W85  0.2-  0.0     130429 291  0.0   0.2+
130418 954  2.9+  1.1-    130419 W85  0.1-  0.1-    130508 568  0.2-  0.1+
130418 807  0.0   0.2-    130419 W85  0.2-  0.0     130508 568  0.1-  0.1+
130418 807  0.1-  0.2-    130419 W85  0.1-  0.0     130508 568  0.0   0.1+
130418 807  0.1-  0.2-    130419 568  0.1+  0.1+    240412 G96  0.2-  0.1-
130418 807  0.0   0.1-    130419 568  0.1+  0.1+    240412 G96  0.2+  0.3+
130418 807  0.2+  0.0     130419 568  0.0   0.1+    240412 G96  0.1+  0.1+
130418 204  0.3-  0.3+    130420 I93  0.1-  0.4+    240412 G96  0.5+  0.2-
130418 204  0.3+  0.5-    130420 I93  0.3+  0.5+    240412 I52  0.1-  0.1-
130419 954  0.2+  0.8+    130420 J95  0.0   0.2-    240412 I52  0.2+  0.0
130419 954  1.3-  1.2+    130420 I93  0.0   0.2-    240412 I52  0.1-  0.2-
130419 954  1.9-  1.2-    130420 J95  0.1+  0.2-    240413 I52  0.4+  0.3+
130419 291  0.1+  0.0     130420 J95  0.6-  0.5-    240413 I52  0.3-  0.1+
130419 291  0.1-  0.3+    130420 448  0.9+  0.2+    240413 I52  0.1-  0.2+
130419 291  0.0   0.0     130420 448  0.3+  0.3-    240413 I52  0.2+  0.4+
130419 711  0.2-  0.5+    130420 448  0.3-  0.7+
Ephemeris:
2013 HM11                a,e,i = 0.89, 0.37, 29                  q = 0.5638
Date    TT    R. A. (2000) Decl.     Delta      r    Elong.  Phase     V
2024 03 14    16 14 32.0 +13 18 59   0.4485  1.2255   110.5    49.5    23.7
...
2024 03 29    15 57 30.1 +11 30 20   0.3168  1.2141   126.6    41.3    22.7
...
2024 04 06    15 32 18.1 +09 14 15   0.2508  1.2013   139.0    33.1    21.9
...
2024 04 12    15 00 04.0 +06 09 04   0.2073  1.1887   151.5    23.7    21.2
2024 04 13    14 53 13.1 +05 27 52   0.2008  1.1863   153.9    21.9    21.1
2024 04 14    14 45 53.6 +04 43 10   0.1947  1.1839   156.3    19.9    21.0
...
2024 04 20    13 51 23.0 -01 04 23   0.1654  1.1677   169.6     9.0    20.2
...
2024 04 28    12 16 34.9 -11 07 04   0.1541  1.1420   149.3    26.8    20.6
...
2024 05 13    09 50 55.5 -22 42 42   0.2123  1.0811   103.9    65.1    22.3
A. U. Tomatic                (C) Copyright 2024 MPC           M.P.E.C. 2024-G184
    
    
More information about the Iaude
mailing list